HVDC transfer

From www.emi.ea.govt.nz provided by the Electricity Authority (New Zealand)
Run at: 20240509083324

Parameters
Date range,26 Feb 2021 - 26 Feb 2021
Time scale,Trading period
Show,Average flow (MW)

Period start,Period end,Trading period,Direction,Energy transfer (GWh),Peak flow (MW),Average flow (MW)
26/02/2021 00:00:00,26/02/2021 00:30:00,1,Southward at Benmore,-0.037,-74,-74
26/02/2021 00:30:00,26/02/2021 01:00:00,2,Southward at Benmore,-0.036,-72,-72
26/02/2021 01:00:00,26/02/2021 01:30:00,3,Southward at Benmore,-0.031,-62,-62
26/02/2021 01:30:00,26/02/2021 02:00:00,4,Southward at Benmore,-0.038,-77,-77
26/02/2021 02:00:00,26/02/2021 02:30:00,5,Southward at Benmore,-0.029,-59,-59
26/02/2021 02:30:00,26/02/2021 03:00:00,6,Southward at Benmore,-0.041,-83,-83
26/02/2021 03:00:00,26/02/2021 03:30:00,7,Southward at Benmore,-0.039,-79,-79
26/02/2021 03:30:00,26/02/2021 04:00:00,8,Southward at Benmore,-0.037,-75,-75
26/02/2021 04:00:00,26/02/2021 04:30:00,9,Southward at Benmore,-0.038,-77,-77
26/02/2021 04:30:00,26/02/2021 05:00:00,10,Southward at Benmore,-0.021,-42,-42
26/02/2021 05:00:00,26/02/2021 05:30:00,11,Southward at Benmore,-0.016,-33,-33
26/02/2021 05:30:00,26/02/2021 06:00:00,12,Southward at Benmore,-0.009,-19,-19
26/02/2021 06:00:00,26/02/2021 06:30:00,13,Northward at Haywards,0.020,39,39
26/02/2021 06:30:00,26/02/2021 07:00:00,14,Northward at Haywards,0.038,75,75
26/02/2021 07:00:00,26/02/2021 07:30:00,15,Northward at Haywards,0.109,217,217
26/02/2021 07:30:00,26/02/2021 08:00:00,16,Northward at Haywards,0.134,267,267
26/02/2021 08:00:00,26/02/2021 08:30:00,17,Northward at Haywards,0.156,312,312
26/02/2021 08:30:00,26/02/2021 09:00:00,18,Northward at Haywards,0.141,281,281
26/02/2021 09:00:00,26/02/2021 09:30:00,19,Northward at Haywards,0.141,281,281
26/02/2021 09:30:00,26/02/2021 10:00:00,20,Northward at Haywards,0.138,275,275
26/02/2021 10:00:00,26/02/2021 10:30:00,21,Northward at Haywards,0.144,287,287
26/02/2021 10:30:00,26/02/2021 11:00:00,22,Northward at Haywards,0.151,302,302
26/02/2021 11:00:00,26/02/2021 11:30:00,23,Northward at Haywards,0.157,314,314
26/02/2021 11:30:00,26/02/2021 12:00:00,24,Northward at Haywards,0.146,291,291
26/02/2021 12:00:00,26/02/2021 12:30:00,25,Northward at Haywards,0.137,273,273
26/02/2021 12:30:00,26/02/2021 13:00:00,26,Northward at Haywards,0.147,294,294
26/02/2021 13:00:00,26/02/2021 13:30:00,27,Northward at Haywards,0.143,286,286
26/02/2021 13:30:00,26/02/2021 14:00:00,28,Northward at Haywards,0.149,298,298
26/02/2021 14:00:00,26/02/2021 14:30:00,29,Northward at Haywards,0.155,309,309
26/02/2021 14:30:00,26/02/2021 15:00:00,30,Northward at Haywards,0.150,300,300
26/02/2021 15:00:00,26/02/2021 15:30:00,31,Northward at Haywards,0.158,315,315
26/02/2021 15:30:00,26/02/2021 16:00:00,32,Northward at Haywards,0.171,341,341
26/02/2021 16:00:00,26/02/2021 16:30:00,33,Northward at Haywards,0.170,339,339
26/02/2021 16:30:00,26/02/2021 17:00:00,34,Northward at Haywards,0.156,311,311
26/02/2021 17:00:00,26/02/2021 17:30:00,35,Northward at Haywards,0.146,291,291
26/02/2021 17:30:00,26/02/2021 18:00:00,36,Northward at Haywards,0.138,275,275
26/02/2021 18:00:00,26/02/2021 18:30:00,37,Northward at Haywards,0.131,262,262
26/02/2021 18:30:00,26/02/2021 19:00:00,38,Northward at Haywards,0.128,256,256
26/02/2021 19:00:00,26/02/2021 19:30:00,39,Northward at Haywards,0.106,212,212
26/02/2021 19:30:00,26/02/2021 20:00:00,40,Northward at Haywards,0.058,116,116
26/02/2021 20:00:00,26/02/2021 20:30:00,41,Northward at Haywards,0.059,117,117
26/02/2021 20:30:00,26/02/2021 21:00:00,42,Northward at Haywards,0.054,107,107
26/02/2021 21:00:00,26/02/2021 21:30:00,43,Northward at Haywards,0.054,107,107
26/02/2021 21:30:00,26/02/2021 22:00:00,44,Northward at Haywards,0.048,95,95
26/02/2021 22:00:00,26/02/2021 22:30:00,45,Northward at Haywards,0.015,30,30
26/02/2021 22:30:00,26/02/2021 23:00:00,46,Northward at Haywards,0.013,26,26
26/02/2021 23:00:00,26/02/2021 23:30:00,47,Southward at Benmore,-0.034,-69,-69
26/02/2021 23:30:00,27/02/2021 00:00:00,48,Southward at Benmore,-0.033,-67,-67
